BEL15T EKCH-EBBR

Flight info

Callsign BEL15T
Flight time 1h 13m
Altitude 38000
Route NEXEN T503 GIMRU DCT MICOS DCT KEGAB DCT ABAMI Z717 NEREL/N0385F240 T855 AGENI/N0352F180 T855 BATTY
Aircraft A320/M-SDE3FGHIRWY/LB1

Departure

Time 2026-05-05 07:06
Airport Copenhagen Kastrup Airport (EKCH)

Arrival

Time 2026-05-05 08:19
Airport Brussels Airport (EBBR)
Time Latitude Longitude Altitude Speed Heading
2026-05-05 06:45 55.62731 12.65261 22 ft 0 kts
2026-05-05 06:58 55.62725 12.65259 19 ft 4 kts
2026-05-05 06:59 55.62698 12.65256 20 ft 4 kts 357°
2026-05-05 06:59 55.62672 12.65263 19 ft 4 kts 339°
2026-05-05 06:59 55.62665 12.65268 22 ft 1 kts 336°
2026-05-05 07:02 55.62667 12.65253 20 ft 5 kts 277°
2026-05-05 07:02 55.62559 12.65177 19 ft 28 kts 179°
2026-05-05 07:02 55.62349 12.65194 23 ft 31 kts 177°
2026-05-05 07:02 55.62151 12.65114 26 ft 30 kts 214°
2026-05-05 07:03 55.61971 12.64906 19 ft 32 kts 213°
2026-05-05 07:03 55.61780 12.64685 19 ft 33 kts 213°
2026-05-05 07:03 55.61652 12.64474 21 ft 24 kts 260°
2026-05-05 07:03 55.61646 12.64310 19 ft 0 kts 265°
2026-05-05 07:04 55.61643 12.64209 20 ft 14 kts 266°
2026-05-05 07:05 55.61574 12.63994 18 ft 37 kts 215°
2026-05-05 07:05 55.61193 12.63399 23 ft 106 kts 221°
2026-05-05 07:05 55.60496 12.62323 20 ft 158 kts 221°
2026-05-05 07:05 55.59593 12.60959 396 ft 173 kts 223°
2026-05-05 07:06 55.58643 12.59552 1023 ft 184 kts 223°
2026-05-05 07:06 55.57648 12.58039 1588 ft 197 kts 222°
2026-05-05 07:06 55.56571 12.56426 2158 ft 209 kts 221°
2026-05-05 07:06 55.55392 12.54844 2871 ft 215 kts 217°
2026-05-05 07:07 55.54135 12.53291 3507 ft 229 kts 216°
2026-05-05 07:07 55.52785 12.51538 3939 ft 252 kts 219°
2026-05-05 07:07 55.51401 12.49565 4748 ft 258 kts 221°
2026-05-05 07:07 55.50013 12.47533 5706 ft 259 kts 221°
2026-05-05 07:08 55.48627 12.45506 6681 ft 259 kts 222°
2026-05-05 07:08 55.47240 12.43487 7616 ft 259 kts 222°
2026-05-05 07:08 55.45835 12.41451 8539 ft 261 kts 222°
2026-05-05 07:08 55.44431 12.39422 9439 ft 262 kts 223°
2026-05-05 07:09 55.43034 12.37402 10255 ft 267 kts 223°
2026-05-05 07:09 55.41543 12.35241 10540 ft 290 kts 223°
2026-05-05 07:09 55.39912 12.32879 10920 ft 306 kts 222°
2026-05-05 07:09 55.38271 12.30516 11591 ft 312 kts 222°
2026-05-05 07:10 55.36578 12.28092 12340 ft 316 kts 222°
2026-05-05 07:10 55.34864 12.25640 13091 ft 319 kts 222°
2026-05-05 07:10 55.33132 12.23165 13821 ft 323 kts 222°
2026-05-05 07:10 55.31378 12.20660 14474 ft 326 kts 222°
2026-05-05 07:11 55.29606 12.18136 15137 ft 329 kts 222°
2026-05-05 07:11 55.27820 12.15599 15804 ft 332 kts 222°
2026-05-05 07:11 55.26018 12.13043 16461 ft 335 kts 222°
2026-05-05 07:11 55.24199 12.10465 17108 ft 338 kts 222°
2026-05-05 07:12 55.22365 12.07866 17752 ft 340 kts 222°
2026-05-05 07:12 55.20517 12.05247 18368 ft 343 kts 222°
2026-05-05 07:12 55.18655 12.02614 18916 ft 345 kts 222°
2026-05-05 07:12 55.16778 11.99960 19469 ft 348 kts 221°
2026-05-05 07:13 55.14884 11.97283 20059 ft 350 kts 221°
2026-05-05 07:13 55.12980 11.94594 20650 ft 352 kts 221°
2026-05-05 07:13 55.11068 11.91899 21240 ft 354 kts 221°
2026-05-05 07:13 55.09137 11.89180 21820 ft 357 kts 221°
2026-05-05 07:14 55.07199 11.86453 22388 ft 359 kts 221°
2026-05-05 07:14 55.05249 11.83715 22939 ft 361 kts 221°
2026-05-05 07:14 55.03284 11.80956 23481 ft 363 kts 221°
2026-05-05 07:14 55.01313 11.78190 23927 ft 365 kts 221°
2026-05-05 07:15 54.99346 11.75440 24344 ft 368 kts 221°
2026-05-05 07:15 54.97340 11.72642 24766 ft 370 kts 221°
2026-05-05 07:15 54.95326 11.69841 25144 ft 372 kts 221°
2026-05-05 07:15 54.93292 11.67011 25482 ft 376 kts 221°
2026-05-05 07:16 54.91243 11.64160 25851 ft 379 kts 221°
2026-05-05 07:16 54.89174 11.61287 26230 ft 381 kts 221°
2026-05-05 07:16 54.87096 11.58408 26621 ft 383 kts 221°
2026-05-05 07:16 54.85005 11.55510 26996 ft 385 kts 221°
2026-05-05 07:17 54.82909 11.52609 27363 ft 387 kts 221°
2026-05-05 07:17 54.80799 11.49693 27728 ft 389 kts 221°
2026-05-05 07:17 54.78677 11.46768 28079 ft 391 kts 221°
2026-05-05 07:17 54.76543 11.43831 28427 ft 393 kts 221°
2026-05-05 07:18 54.74397 11.40882 28784 ft 395 kts 220°
2026-05-05 07:18 54.72240 11.37918 29075 ft 397 kts 220°
2026-05-05 07:18 54.70067 11.34935 29370 ft 400 kts 220°
2026-05-05 07:18 54.67884 11.31941 29677 ft 402 kts 220°
2026-05-05 07:19 54.65688 11.28937 29979 ft 404 kts 220°
2026-05-05 07:19 54.63478 11.25925 30233 ft 405 kts 220°
2026-05-05 07:19 54.61260 11.22904 30466 ft 407 kts 220°
2026-05-05 07:19 54.59031 11.19870 30688 ft 409 kts 220°
2026-05-05 07:20 54.56819 11.16863 30902 ft 411 kts 220°
2026-05-05 07:20 54.54562 11.13799 31114 ft 413 kts 220°
2026-05-05 07:20 54.52296 11.10729 31338 ft 414 kts 220°
2026-05-05 07:20 54.50029 11.07658 31637 ft 414 kts 220°
2026-05-05 07:21 54.47766 11.04595 31886 ft 415 kts 219°
2026-05-05 07:21 54.45496 11.01523 32170 ft 415 kts 219°
2026-05-05 07:21 54.43226 10.98458 32439 ft 415 kts 219°
2026-05-05 07:21 54.40954 10.95395 32728 ft 415 kts 219°
2026-05-05 07:22 54.38683 10.92343 33022 ft 415 kts 219°
2026-05-05 07:22 54.36414 10.89296 33307 ft 415 kts 219°
2026-05-05 07:22 54.34140 10.86250 33592 ft 415 kts 219°
2026-05-05 07:22 54.31866 10.83206 33889 ft 414 kts 219°
2026-05-05 07:23 54.29594 10.80170 34150 ft 414 kts 219°
2026-05-05 07:23 54.27320 10.77142 34390 ft 414 kts 219°
2026-05-05 07:23 54.25044 10.74114 34605 ft 414 kts 219°
2026-05-05 07:23 54.22800 10.71132 34844 ft 414 kts 219°
2026-05-05 07:24 54.20526 10.68116 35075 ft 414 kts 219°
2026-05-05 07:24 54.18248 10.65096 35299 ft 414 kts 219°
2026-05-05 07:24 54.15971 10.62077 35510 ft 414 kts 219°
2026-05-05 07:24 54.13688 10.59056 35667 ft 416 kts 219°
2026-05-05 07:25 54.11402 10.56036 35851 ft 416 kts 219°
2026-05-05 07:25 54.09115 10.53013 36042 ft 416 kts 219°
2026-05-05 07:25 54.06828 10.49989 36231 ft 416 kts 219°
2026-05-05 07:25 54.04538 10.46964 36419 ft 416 kts 219°
2026-05-05 07:26 54.02250 10.43949 36592 ft 416 kts 219°
2026-05-05 07:26 53.99960 10.40941 36778 ft 416 kts 219°
2026-05-05 07:26 53.97665 10.37930 36958 ft 416 kts 219°
2026-05-05 07:26 53.95376 10.34934 37168 ft 416 kts 219°
2026-05-05 07:27 53.93078 10.31939 37345 ft 416 kts 219°
2026-05-05 07:27 53.90780 10.28954 37523 ft 416 kts 219°
2026-05-05 07:27 53.88480 10.25971 37709 ft 416 kts 219°
2026-05-05 07:27 53.86186 10.22999 37900 ft 416 kts 219°
2026-05-05 07:28 53.83884 10.20015 37957 ft 416 kts 219°
2026-05-05 07:28 53.79295 10.14045 37953 ft 416 kts 219°
2026-05-05 07:29 53.74730 10.08127 37954 ft 416 kts 219°
2026-05-05 07:29 53.70133 10.02210 37950 ft 416 kts 219°
2026-05-05 07:30 53.65528 9.96298 37948 ft 416 kts 219°
2026-05-05 07:30 53.58620 9.87450 37961 ft 416 kts 219°
2026-05-05 07:31 53.54000 9.81560 37976 ft 417 kts 219°
2026-05-05 07:31 53.49382 9.75678 37985 ft 417 kts 219°
2026-05-05 07:32 53.44755 9.69800 37987 ft 417 kts 219°
2026-05-05 07:32 53.40122 9.63935 37978 ft 417 kts 219°
2026-05-05 07:33 53.35480 9.58074 37966 ft 417 kts 219°
2026-05-05 07:33 53.30874 9.52280 37974 ft 417 kts 219°
2026-05-05 07:34 53.26230 9.46447 37974 ft 417 kts 219°
2026-05-05 07:34 53.21591 9.40634 37968 ft 417 kts 218°
2026-05-05 07:35 53.16947 9.34846 37971 ft 417 kts 218°
2026-05-05 07:35 53.12293 9.29061 37972 ft 417 kts 218°
2026-05-05 07:36 53.07645 9.23294 37975 ft 417 kts 218°
2026-05-05 07:36 53.02990 9.17537 37978 ft 417 kts 218°
2026-05-05 07:37 52.98326 9.11783 37986 ft 417 kts 218°
2026-05-05 07:37 52.93652 9.06035 37976 ft 418 kts 218°
2026-05-05 07:38 52.88985 9.00297 37969 ft 418 kts 218°
2026-05-05 07:38 52.84344 8.94603 37972 ft 418 kts 218°
2026-05-05 07:39 52.79661 8.88885 37973 ft 418 kts 218°
2026-05-05 07:39 52.74980 8.83197 37960 ft 418 kts 218°
2026-05-05 07:40 52.70294 8.77515 37952 ft 418 kts 218°
2026-05-05 07:40 52.65609 8.71841 37947 ft 417 kts 218°
2026-05-05 07:41 52.60931 8.66190 37952 ft 417 kts 218°
2026-05-05 07:41 52.56255 8.60550 37960 ft 417 kts 218°
2026-05-05 07:42 52.52366 8.55873 37958 ft 416 kts 218°
2026-05-05 07:42 52.47689 8.50279 37956 ft 416 kts 218°
2026-05-05 07:43 52.43012 8.44689 37949 ft 415 kts 218°
2026-05-05 07:43 52.38345 8.39113 37975 ft 415 kts 218°
2026-05-05 07:44 52.33668 8.33554 37975 ft 415 kts 218°
2026-05-05 07:44 52.29016 8.28048 37965 ft 415 kts 218°
2026-05-05 07:45 52.24340 8.22523 37950 ft 415 kts 218°
2026-05-05 07:45 52.19663 8.17010 37942 ft 415 kts 217°
2026-05-05 07:46 52.14977 8.11499 37945 ft 415 kts 218°
2026-05-05 07:46 52.10277 8.05986 37949 ft 416 kts 217°
2026-05-05 07:47 52.05584 8.00491 37952 ft 416 kts 217°
2026-05-05 07:47 52.00886 7.95006 37926 ft 416 kts 217°
2026-05-05 07:48 51.96192 7.89528 37934 ft 416 kts 217°
2026-05-05 07:48 51.91488 7.84059 37937 ft 416 kts 217°
2026-05-05 07:49 51.86824 7.78677 37926 ft 415 kts 217°
2026-05-05 07:49 51.82080 7.73216 37919 ft 416 kts 217°
2026-05-05 07:50 51.77399 7.67832 37910 ft 414 kts 217°
2026-05-05 07:50 51.72727 7.62452 37906 ft 412 kts 217°
2026-05-05 07:51 51.68058 7.57096 37905 ft 412 kts 217°
2026-05-05 07:51 51.63385 7.51759 37904 ft 412 kts 217°
2026-05-05 07:52 51.58705 7.46430 37925 ft 412 kts 217°
2026-05-05 07:52 51.54026 7.41108 37924 ft 412 kts 217°
2026-05-05 07:53 51.49347 7.35797 37932 ft 412 kts 216°
2026-05-05 07:53 51.44660 7.30499 37933 ft 412 kts 217°
2026-05-05 07:54 51.40670 7.24135 37930 ft 410 kts 233°
2026-05-05 07:54 51.37277 7.16800 37934 ft 410 kts 233°
2026-05-05 07:55 51.33869 7.09495 37624 ft 411 kts 233°
2026-05-05 07:55 51.32159 7.05846 37332 ft 410 kts 233°
2026-05-05 07:55 51.30449 7.02206 37057 ft 408 kts 233°
2026-05-05 07:56 51.28748 6.98586 36777 ft 407 kts 233°
2026-05-05 07:56 51.27053 6.94969 36451 ft 406 kts 233°
2026-05-05 07:56 51.25349 6.91335 35392 ft 412 kts 233°
2026-05-05 07:56 51.23616 6.87651 34406 ft 415 kts 232°
2026-05-05 07:57 51.21897 6.84007 33770 ft 408 kts 232°
2026-05-05 07:57 51.20193 6.80396 32992 ft 405 kts 233°
2026-05-05 07:57 51.18513 6.76845 32544 ft 395 kts 233°
2026-05-05 07:57 51.16862 6.73359 31941 ft 391 kts 233°
2026-05-05 07:58 51.15242 6.69940 31125 ft 393 kts 233°
2026-05-05 07:58 51.13590 6.66461 30272 ft 395 kts 232°
2026-05-05 07:58 51.11920 6.62960 29406 ft 398 kts 232°
2026-05-05 07:58 51.10237 6.59437 28480 ft 400 kts 232°
2026-05-05 07:59 51.08501 6.55961 27598 ft 402 kts 227°
2026-05-05 07:59 51.06530 6.52790 26731 ft 404 kts 225°
2026-05-05 07:59 51.04530 6.49624 25881 ft 406 kts 225°
2026-05-05 07:59 51.02523 6.46448 25073 ft 408 kts 225°
2026-05-05 08:00 51.00523 6.43292 24259 ft 400 kts 225°
2026-05-05 08:00 50.98579 6.40230 23473 ft 390 kts 225°
2026-05-05 08:00 50.96669 6.37227 22570 ft 382 kts 224°
2026-05-05 08:00 50.94795 6.34284 21692 ft 376 kts 224°
2026-05-05 08:01 50.92951 6.31381 20838 ft 370 kts 224°
2026-05-05 08:01 50.91135 6.28521 20011 ft 365 kts 224°
2026-05-05 08:01 50.89341 6.25700 19199 ft 361 kts 224°
2026-05-05 08:01 50.87573 6.22925 18420 ft 356 kts 224°
2026-05-05 08:02 50.85839 6.20213 17579 ft 353 kts 224°
2026-05-05 08:02 50.84100 6.17500 16710 ft 349 kts 224°
2026-05-05 08:02 50.82373 6.14808 15867 ft 347 kts 224°
2026-05-05 08:02 50.80662 6.12145 15046 ft 344 kts 224°
2026-05-05 08:03 50.78962 6.09505 14235 ft 342 kts 224°
2026-05-05 08:03 50.77267 6.06872 13437 ft 341 kts 225°
2026-05-05 08:03 50.75582 6.04249 12561 ft 339 kts 225°
2026-05-05 08:03 50.73941 6.01583 11709 ft 336 kts 227°
2026-05-05 08:04 50.72393 5.98840 10886 ft 333 kts 229°
2026-05-05 08:04 50.70907 5.96078 10201 ft 326 kts 230°
2026-05-05 08:04 50.69483 5.93385 9977 ft 316 kts 230°
2026-05-05 08:04 50.68132 5.90695 9830 ft 307 kts 237°
2026-05-05 08:05 50.67191 5.87756 9656 ft 296 kts 251°
2026-05-05 08:05 50.66706 5.84631 9322 ft 292 kts 264°
2026-05-05 08:05 50.66688 5.81452 8951 ft 289 kts 278°
2026-05-05 08:05 50.67113 5.78417 8693 ft 286 kts 290°
2026-05-05 08:06 50.67933 5.75573 8418 ft 284 kts 299°
2026-05-05 08:06 50.68837 5.72795 8291 ft 285 kts 298°
2026-05-05 08:06 50.69733 5.70014 8162 ft 285 kts 298°
2026-05-05 08:06 50.70627 5.67226 8032 ft 284 kts 298°
2026-05-05 08:07 50.71520 5.64430 7902 ft 284 kts 298°
2026-05-05 08:07 50.72406 5.61646 7690 ft 283 kts 298°
2026-05-05 08:07 50.73289 5.58864 7490 ft 284 kts 298°
2026-05-05 08:07 50.74177 5.56078 7291 ft 283 kts 298°
2026-05-05 08:08 50.75060 5.53302 7088 ft 282 kts 299°
2026-05-05 08:08 50.75941 5.50533 6895 ft 281 kts 298°
2026-05-05 08:08 50.76817 5.47779 6701 ft 280 kts 298°
2026-05-05 08:08 50.77692 5.45031 6507 ft 280 kts 298°
2026-05-05 08:09 50.78565 5.42287 6307 ft 279 kts 298°
2026-05-05 08:09 50.79424 5.39583 6104 ft 278 kts 298°
2026-05-05 08:09 50.80289 5.36853 5905 ft 278 kts 299°
2026-05-05 08:09 50.81160 5.34110 5698 ft 278 kts 299°
2026-05-05 08:10 50.82023 5.31385 5491 ft 277 kts 299°
2026-05-05 08:10 50.82885 5.28660 5295 ft 277 kts 299°
2026-05-05 08:10 50.83743 5.25938 5105 ft 276 kts 299°
2026-05-05 08:10 50.84597 5.23224 4904 ft 276 kts 299°
2026-05-05 08:11 50.85450 5.20513 4702 ft 275 kts 299°
2026-05-05 08:11 50.86300 5.17811 4496 ft 274 kts 299°
2026-05-05 08:11 50.87147 5.15115 4285 ft 272 kts 298°
2026-05-05 08:11 50.88047 5.12503 4122 ft 269 kts 305°
2026-05-05 08:12 50.89055 5.10009 3992 ft 269 kts 306°
2026-05-05 08:12 50.90057 5.07525 3974 ft 266 kts 305°
2026-05-05 08:12 50.91058 5.05039 4005 ft 268 kts 305°
2026-05-05 08:12 50.92048 5.02573 4007 ft 268 kts 305°
2026-05-05 08:13 50.93048 5.00077 4008 ft 269 kts 305°
2026-05-05 08:13 50.94050 4.97578 4008 ft 269 kts 305°
2026-05-05 08:13 50.95052 4.95075 3945 ft 268 kts 305°
2026-05-05 08:13 50.96026 4.92643 3815 ft 254 kts 305°
2026-05-05 08:14 50.96940 4.90321 3687 ft 243 kts 301°
2026-05-05 08:14 50.97469 4.87830 3558 ft 236 kts 279°
2026-05-05 08:14 50.97431 4.85271 3436 ft 230 kts 259°
2026-05-05 08:14 50.96930 4.82848 3303 ft 232 kts 250°
2026-05-05 08:15 50.96349 4.80477 3180 ft 228 kts 251°
2026-05-05 08:15 50.95810 4.78172 3072 ft 218 kts 251°
2026-05-05 08:15 50.95309 4.75979 3012 ft 204 kts 252°
2026-05-05 08:15 50.94844 4.73940 2984 ft 192 kts 252°
2026-05-05 08:16 50.94393 4.71960 2783 ft 189 kts 252°
2026-05-05 08:16 50.93946 4.70002 2536 ft 188 kts 252°
2026-05-05 08:16 50.93502 4.68059 2272 ft 181 kts 253°
2026-05-05 08:16 50.93091 4.66268 2035 ft 166 kts 253°
2026-05-05 08:17 50.92709 4.64601 1822 ft 158 kts 252°
2026-05-05 08:17 50.92343 4.62999 1619 ft 155 kts 252°
2026-05-05 08:17 50.91975 4.61391 1400 ft 154 kts 253°
2026-05-05 08:17 50.91613 4.59817 1189 ft 150 kts 254°
2026-05-05 08:18 50.91254 4.58253 993 ft 153 kts 254°
2026-05-05 08:18 50.90892 4.56677 775 ft 151 kts 253°
2026-05-05 08:18 50.90536 4.55129 585 ft 147 kts 254°
2026-05-05 08:18 50.90187 4.53608 387 ft 146 kts 254°
2026-05-05 08:19 50.89839 4.52114 189 ft 143 kts 253°
2026-05-05 08:19 50.89550 4.50817 144 ft 89 kts 249°
2026-05-05 08:19 50.89422 4.50275 150 ft 38 kts 250°
2026-05-05 08:19 50.89333 4.49851 149 ft 33 kts 263°
2026-05-05 08:20 50.89395 4.49623 145 ft 0 kts 308°
2026-05-05 08:21 50.89405 4.49601 145 ft 12 kts 307°
2026-05-05 08:21 50.89504 4.49392 139 ft 29 kts 307°
2026-05-05 08:21 50.89619 4.49160 143 ft 19 kts 322°
2026-05-05 08:22 50.89736 4.49183 145 ft 17 kts 15°
2026-05-05 08:22 50.89853 4.49231 147 ft 18 kts 14°
2026-05-05 08:22 50.89984 4.49283 144 ft 21 kts 14°
2026-05-05 08:22 50.90133 4.49343 141 ft 23 kts 16°
2026-05-05 08:23 50.90293 4.49408 138 ft 21 kts
2026-05-05 08:23 50.90389 4.49323 136 ft 18 kts 334°
2026-05-05 08:23 50.90509 4.49237 133 ft 20 kts 336°
2026-05-05 08:23 50.90635 4.49136 126 ft 18 kts 312°
2026-05-05 08:24 50.90578 4.49044 127 ft 13 kts 189°
2026-05-05 08:24 50.90534 4.49031 131 ft 0 kts 191°